Regional Weather Roundup
Issued by NWS

Home | Current Version | Previous Version | Graphics & Text | Print | Product List | Glossary On
Versions: 1 2 3 4 5 6 7 8 9 10 11 12 13 14 15 16 17 18 19 20 21 22 23 24 25 26 27 28 29 30 31 32 33 34 35 36 37 38 39 40 41 42 43 44 45 46 47 48 49 50
000
ASUS43 KLOT 031221
RWRIL

ILLINOIS REGIONAL WEATHER ROUNDUP
NATIONAL WEATHER SERVICE CHICAGO/ROMEOVILLE IL
700 AM CDT WED JUN 03 2015

NOTE: "FAIR" INDICATES FEW OR NO CLOUDS BELOW 12,000 FEET WITH NO
SIGNIFICANT WEATHER AND/OR OBSTRUCTIONS TO VISIBILITY.

* THESE STATIONS ARE NOT UNDER NWS QUALITY CONTROL. THEY ALSO MAY NOT
  REPORT WEATHER SUCH AS PRECIPITATION OR FOG.

ILZ001-002-007-009-015-016-024-031300-
NORTHWEST ILLINOIS

CITY           SKY/WX    TMP DP  RH WIND       PRES   REMARKS
MOLINE         MOSUNNY   59  54  83 SE7       30.02S
6HR MIN TEMP:  53; 6HR MAX TEMP:  59;

STERLING*      SUNNY     61  54  77 SE8       30.06R
SAVANNA*       MOSUNNY   60  54  79 SE8       30.04S
$$

ILZ003-004-008-010-011-017-018-031300-
NORTH CENTRAL ILLINOIS

CITY           SKY/WX    TMP DP  RH WIND       PRES   REMARKS
ROCKFORD       PTSUNNY   58  51  78 SE5       30.08F
6HR MIN TEMP:  53; 6HR MAX TEMP:  58;

FREEPORT*      SUNNY     56  53  87 SE8       30.08R
ROCHELLE*      MOSUNNY   58  53  85 SE10      30.07S
DE KALB*       MOSUNNY   55  51  86 SE8       30.09R
PERU*          MOSUNNY   58  53  84 SE6       30.07S
$$

ILZ005-006-012>014-019>023-031300-
NORTHEAST ILLINOIS

CITY           SKY/WX    TMP DP  RH WIND       PRES   REMARKS
CHICAGO-OHARE  PTSUNNY   57  51  80 S8        30.08S
6HR MIN TEMP:  50; 6HR MAX TEMP:  57;

CHICAGO-MIDWAY PTSUNNY   59  51  75 S7        30.09R
6HR MIN TEMP:  55; 6HR MAX TEMP:  59;

AURORA         MOSUNNY   57  51  80 SE6       30.09R HAZE
6HR MIN TEMP:  49; 6HR MAX TEMP:  57;

LANSING*       MOSUNNY   56  50  80 CALM      30.10S
JOLIET*        SUNNY     58  55  88 CALM      30.09S
WAUKEGAN       SUNNY     53  50  89 SE3       30.08S
6HR MIN TEMP:  44; 6HR MAX TEMP:  53;

DUPAGE AIRPORT SUNNY     55  50  83 CALM      30.08R
6HR MIN TEMP:  50; 6HR MAX TEMP:  55;

KANKAKEE*      MOSUNNY   55  53  94 E5        30.10R FOG
WHEELING       SUNNY     56  49  77 CALM      30.11R
6HR MIN TEMP:  48; 6HR MAX TEMP:  56;

MORRIS*        MOSUNNY   57  53  87 SE7       30.06S FOG
ROMEOVILLE*    SUNNY     55  51  86 S5        30.09S
NORTHERLY ISL    N/A     57  53  86 E1          N/A
$$

LMZ740>746-031300-
SOUTHERN LAKE MICHIGAN

STATION/POSITION SKY/WX   TEMP    WIND        PRES    VSBY  WAVE
                          AIR SEA DIR/SP/G                  HT/PER
                          (F)     (DEG/KT/KT) (MB)    (MI)  (FT/S)
SOUTHERN BUOY              43 38  210/  2/  4 1020.3R         0
HARRISON CRIB              56     140/  4/  4   N/A
BURNHAM HARBOR             58      CALM  /  2   N/A
CALUMET HARBOR             58     150/  4/  5   N/A
BURNS HARBOR                      150/  8/ 11 1019.3S
MICHIGAN CITY              56     120/  8/ 10   N/A
MICHIGAN CITY 6N           55 56  160/  6/  8   N/A           1
ST. JOSEPH                 53 55  160/  8/ 10   N/A           1
$$

ILZ025>027-034>036-040-047-049-050-058-095>099-031300-
WEST-CENTRAL ILLINOIS

CITY           SKY/WX    TMP DP  RH WIND       PRES   REMARKS
QUINCY         SUNNY     59  57  93 SE7       30.01F FOG
GALESBURG*     MOSUNNY   58  56  92 SE3       30.04S
MACOMB*        SUNNY     58  58  99 SE3       30.05S FOG
JACKSONVILLE*  MOSUNNY   60  57  91 S3        30.06R FOG
PITTSFIELD*      N/A     57  56  94 SE3       30.05S FOG
$$

ILZ028>032-037-038-041>044-048-051>054-059>061-031300-
CENTRAL ILLINOIS

CITY           SKY/WX    TMP DP  RH WIND       PRES   REMARKS
PONTIAC        MOSUNNY   57  55  95 SE3       30.09R FOG
BLOOMINGTON    MOSUNNY   57  55  93 S9        30.09R
DECATUR        PTSUNNY   58  56  93 S5        30.08R FOG
PEORIA         SUNNY     60  56  86 SE3       30.07R FOG
6HR MIN TEMP:  58; 6HR MAX TEMP:  64;

LACON*         SUNNY     57  54  89 S3        30.06S FOG
LINCOLN*       PTSUNNY   59  57  92 S3        30.06S FOG
SPRINGFIELD    CLOUDY    60  57  89 SE3       30.07R FOG
6HR MIN TEMP:  56; 6HR MAX TEMP:  61;

TAYLORVILLE    CLOUDY    55  55 100 SE5       30.07S FOG
$$

ILZ033-039-045-046-055>057-062-063-031300-
EAST-CENTRAL ILLINOIS

CITY           SKY/WX    TMP DP  RH WIND       PRES   REMARKS
CHAMPAIGN      CLOUDY    57  55  93 E5        30.08R
DANVILLE*      MOSUNNY   54  53  95 CALM      30.07R FOG
RANTOUL*       MOSUNNY   56  55  93 SE6       30.08S FOG
MATTOON        MOSUNNY   58  55  90 S5        30.08R
PARIS*         SUNNY     55  54  95 CALM      30.10R FOG
$$

ILZ079-100>102-031300-
SOUTHWEST ILLINOIS

CITY           SKY/WX    TMP DP  RH WIND       PRES   REMARKS
BELLEVILLE     CLOUDY    58  58 100 SE6       30.05S
CAHOKIA*       CLOUDY    60  57  89 CALM      30.05R
SPARTA*        CLOUDY    58  57  95 CALM      30.08R
$$

ILZ064>066-069>071-074>076-080>082-084>086-088>090-092>094-031300-
SOUTH-CENTRAL ILLINOIS

CITY           SKY/WX    TMP DP  RH WIND       PRES   REMARKS
CARBONDALE     CLOUDY    57  55  93 E3        30.07R FOG
6HR MIN TEMP:  53; 6HR MAX TEMP:  59;

CAIRO*         CLOUDY    63  60  90 NE3       30.05S FOG
EFFINGHAM*     CLOUDY    59  56  90 CALM      30.09S FOG
MARION         CLOUDY    57  57 100 MISG      30.08R FOG
MT. VERNON     CLOUDY    57  54  88 CALM      30.09R
CENTRALIA*     CLOUDY    58  57  94 CALM      30.08R FOG
SALEM*         CLOUDY    60  57  89 CALM      30.08S FOG
$$

ILZ067-068-072-073-078-083-087-091-031300-
SOUTHEAST ILLINOIS

CITY           SKY/WX    TMP DP  RH WIND       PRES   REMARKS
LAWRENCEVILLE  MOSUNNY   57  54  89 CALM      30.09R FOG
FLORA*         SUNNY     57  56  94 CALM      30.08S FOG
FAIRFIELD*     CLOUDY    57  56  97 CALM      30.07S FOG
HARRISBURG*    PTSUNNY   59  58  96 CALM      30.08S FOG
ROBINSON*      CLOUDY    56  54  93 CALM      30.10R FOG
CARMI*           N/A     57  54  88 CALM      30.07S FOG
$$

ABBREVIATIONS USED IN REMARKS
   TC - TEMPERATURE IN CELSIUS
  WCI - WIND CHILL INDEX
   HX - HEAT INDEX
  VSB - VISIBILITY
$$



USA.gov is the U.S. government's official web portal to all federal, state and local government web resources and services.